• In Uzbekistan
  • List of Countries
  • For 7 days
  • Water Temperature
  • Satellite Maps
  • Weather Map
  • Weather Widgets
  • user-avatar
    Login

    Hourly Weather Klagenfurt

    Today, 9 December, Friday

    Time Temperature Precipitation Wind Pressure Humidity
    00:00 +1°C° 0 mm 1 mps 698 mmHg 51%
    01:00 -1°C° 0 mm 2 mps 698 mmHg 49%
    02:00 -1°C° 0 mm 2 mps 698 mmHg 49%
    03:00 +1°C° 0 mm 1 mps 697 mmHg 50%
    04:00 +1°C° 0 mm 1 mps 697 mmHg 50%
    05:00 +1°C° 0 mm 1 mps 697 mmHg 51%
    06:00 0°C° 0 mm 1 mps 697 mmHg 51%
    07:00 0°C° 0 mm 1 mps 697 mmHg 52%
    08:00 +1°C° 0 mm 1 mps 698 mmHg 50%
    09:00 +3°C° 0 mm 1 mps 698 mmHg 48%
    10:00 +4°C° 0 mm 1 mps 698 mmHg 45%
    11:00 +5°C° 0 mm 1 mps 698 mmHg 46%
    12:00 +7°C° 0 mm 1 mps 698 mmHg 47%
    13:00 +8°C° 0 mm 1 mps 698 mmHg 48%
    14:00 +6°C° 0 mm 1 mps 698 mmHg 55%
    15:00 +4°C° 0 mm 1 mps 697 mmHg 63%
    16:00 +2°C° 0 mm 1 mps 696 mmHg 70%
    17:00 +1°C° 0 mm 1 mps 696 mmHg 70%
    18:00 +1°C° 0 mm 1 mps 696 mmHg 70%
    19:00 0°C° 0 mm 1 mps 696 mmHg 70%
    20:00 0°C° 0 mm 1 mps 696 mmHg 68%
    21:00 0°C° 0 mm 1 mps 696 mmHg 66%
    22:00 0°C° 0 mm 1 mps 696 mmHg 64%
    23:00 0°C° 0 mm 1 mps 696 mmHg 63%

    Tomorrow, 10 December, Saturday

    Time Temperature Precipitation Wind Pressure Humidity
    00:00 -1°C° 0 mm 0 mps 696 mmHg 62%
    01:00 -1°C° 0 mm 0 mps 696 mmHg 61%
    02:00 -1°C° 0 mm 0 mps 695 mmHg 60%
    03:00 -1°C° 0 mm 0 mps 695 mmHg 59%
    04:00 -1°C° 0 mm 0 mps 695 mmHg 59%
    05:00 -1°C° 0 mm 0 mps 694 mmHg 59%
    06:00 -1°C° 0 mm 0 mps 694 mmHg 59%
    07:00 -1°C° 0 mm 0 mps 694 mmHg 59%
    08:00 +1°C° 0 mm 0 mps 695 mmHg 55%
    09:00 +3°C° 0 mm 0 mps 695 mmHg 50%
    10:00 +5°C° 0 mm 0 mps 696 mmHg 46%
    11:00 +6°C° 0 mm 0 mps 696 mmHg 46%
    12:00 +7°C° 0 mm 0 mps 695 mmHg 46%
    13:00 +9°C° 0 mm 1 mps 695 mmHg 46%
    14:00 +7°C° 0 mm 1 mps 695 mmHg 53%
    15:00 +4°C° 0 mm 1 mps 694 mmHg 60%
    16:00 +2°C° 0 mm 1 mps 693 mmHg 67%
    17:00 +2°C° 0 mm 1 mps 693 mmHg 68%
    18:00 +2°C° 0 mm 1 mps 693 mmHg 69%
    19:00 +1°C° 0 mm 1 mps 693 mmHg 70%
    20:00 +1°C° 0 mm 1 mps 692 mmHg 69%
    21:00 +1°C° 0 mm 1 mps 692 mmHg 67%
    22:00 +1°C° 0 mm 1 mps 692 mmHg 66%
    23:00 +1°C° 0 mm 1 mps 692 mmHg 65%

    Day after tomorrow, 11 December, Sunday

    Time Temperature Precipitation Wind Pressure Humidity
    00:00 +1°C° 0 mm 1 mps 692 mmHg 64%
    01:00 +1°C° 0 mm 1 mps 691 mmHg 64%
    02:00 +1°C° 0 mm 1 mps 691 mmHg 64%
    03:00 +1°C° 0 mm 1 mps 690 mmHg 64%
    04:00 +1°C° 0 mm 1 mps 690 mmHg 64%
    05:00 +1°C° 0 mm 1 mps 690 mmHg 65%
    06:00 +1°C° 0 mm 1 mps 690 mmHg 65%
    07:00 +1°C° 0 mm 1 mps 690 mmHg 66%
    08:00 +2°C° 0 mm 1 mps 690 mmHg 63%
    09:00 +3°C° 0 mm 1 mps 690 mmHg 61%
    10:00 +5°C° 0 mm 1 mps 691 mmHg 58%
    11:00 +6°C° 0 mm 1 mps 691 mmHg 59%
    12:00 +7°C° 0 mm 1 mps 691 mmHg 60%
    13:00 +8°C° 0 mm 1 mps 691 mmHg 60%
    14:00 +6°C° 0 mm 1 mps 690 mmHg 68%
    15:00 +4°C° 0 mm 1 mps 690 mmHg 75%
    16:00 +2°C° 0 mm 1 mps 690 mmHg 82%
    17:00 +2°C° 0 mm 1 mps 690 mmHg 83%
    18:00 +1°C° 0 mm 1 mps 690 mmHg 84%
    19:00 +1°C° 0 mm 1 mps 690 mmHg 85%
    20:00 +1°C° 0 mm 1 mps 691 mmHg 86%
    21:00 +1°C° 0 mm 1 mps 691 mmHg 86%
    22:00 +1°C° 0 mm 1 mps 691 mmHg 86%
    23:00 +1°C° 0 mm 1 mps 691 mmHg 86%

    12 December, Monday

    Time Temperature Precipitation Wind Pressure Humidity
    00:00 +1°C° 0 mm 1 mps 691 mmHg 86%
    01:00 +1°C° 0 mm 1 mps 691 mmHg 87%
    02:00 +1°C° 0 mm 1 mps 691 mmHg 87%
    03:00 +1°C° 0 mm 1 mps 691 mmHg 87%
    04:00 0°C° 0 mm 1 mps 691 mmHg 88%
    05:00 0°C° 0 mm 1 mps 691 mmHg 88%
    06:00 0°C° 0 mm 1 mps 691 mmHg 89%
    07:00 0°C° 0 mm 1 mps 691 mmHg 89%
    08:00 +1°C° 0 mm 1 mps 692 mmHg 83%
    09:00 +3°C° 0 mm 1 mps 692 mmHg 76%
    10:00 +4°C° 0 mm 1 mps 693 mmHg 70%
    11:00 +5°C° 0 mm 1 mps 693 mmHg 67%
    12:00 +6°C° 0 mm 1 mps 693 mmHg 64%
    13:00 +7°C° 0 mm 1 mps 693 mmHg 61%
    14:00 +5°C° 0 mm 1 mps 693 mmHg 68%
    15:00 +3°C° 0 mm 1 mps 693 mmHg 76%
    16:00 +2°C° 0 mm 1 mps 692 mmHg 83%
    17:00 +1°C° 0 mm 1 mps 693 mmHg 83%
    18:00 +1°C° 0 mm 1 mps 693 mmHg 83%
    19:00 0°C° 0 mm 1 mps 693 mmHg 83%
    20:00 0°C° 0 mm 1 mps 694 mmHg 83%
    21:00 0°C° 0 mm 1 mps 694 mmHg 83%
    22:00 0°C° 0 mm 1 mps 694 mmHg 83%
    23:00 0°C° 0 mm 1 mps 695 mmHg 84%

    13 December, Tuesday

    Time Temperature Precipitation Wind Pressure Humidity
    00:00 0°C° 0 mm 1 mps 695 mmHg 84%
    01:00 0°C° 0 mm 1 mps 695 mmHg 85%
    02:00 0°C° 0 mm 1 mps 695 mmHg 85%
    03:00 0°C° 0 mm 1 mps 695 mmHg 85%
    04:00 0°C° 0 mm 1 mps 695 mmHg 85%
    05:00 0°C° 0 mm 1 mps 696 mmHg 86%
    06:00 0°C° 0 mm 1 mps 696 mmHg 87%
    07:00 -1°C° 0 mm 1 mps 696 mmHg 88%
    08:00 0°C° 0 mm 1 mps 696 mmHg 84%
    09:00 +1°C° 0 mm 1 mps 697 mmHg 80%
    10:00 +2°C° 0 mm 1 mps 697 mmHg 76%
    11:00 +3°C° 0 mm 1 mps 697 mmHg 74%
    12:00 +4°C° 0 mm 1 mps 697 mmHg 71%
    13:00 +4°C° 0 mm 1 mps 697 mmHg 69%
    14:00 +3°C° 0 mm 1 mps 697 mmHg 76%
    15:00 +2°C° 0 mm 1 mps 696 mmHg 83%
    16:00 0°C° 0 mm 1 mps 696 mmHg 90%
    17:00 0°C° 0 mm 1 mps 696 mmHg 91%
    18:00 0°C° 0 mm 1 mps 696 mmHg 91%
    19:00 0°C° 0 mm 1 mps 696 mmHg 91%
    20:00 0°C° 0 mm 1 mps 696 mmHg 90%
    21:00 0°C° 0 mm 1 mps 696 mmHg 89%
    22:00 0°C° 0 mm 1 mps 696 mmHg 88%
    23:00 -1°C° 0 mm 0 mps 695 mmHg 87%

    14 December, Wednesday

    Time Temperature Precipitation Wind Pressure Humidity
    00:00 -1°C° 0 mm 0 mps 695 mmHg 86%
    01:00 -1°C° 0 mm 0 mps 695 mmHg 85%
    02:00 -1°C° 0 mm 0 mps 695 mmHg 85%
    03:00 -2°C° 0 mm 0 mps 694 mmHg 85%
    04:00 -2°C° 0 mm 0 mps 694 mmHg 85%
    05:00 -1°C° 0 mm 1 mps 694 mmHg 83%
    06:00 -1°C° 0 mm 1 mps 694 mmHg 82%
    07:00 -1°C° 0 mm 1 mps 694 mmHg 81%
    08:00 +1°C° 0 mm 1 mps 695 mmHg 75%
    09:00 +2°C° 0 mm 1 mps 695 mmHg 68%
    10:00 +4°C° 0 mm 1 mps 696 mmHg 62%
    11:00 +5°C° 0 mm 1 mps 696 mmHg 60%
    12:00 +6°C° 0 mm 1 mps 696 mmHg 58%
    13:00 +5°C° 0 mm 0 mps 696 mmHg 56%
    14:00 +5°C° 0 mm 1 mps 695 mmHg 65%
    15:00 +3°C° 0 mm 1 mps 695 mmHg 74%
    16:00 +1°C° 0 mm 1 mps 695 mmHg 83%
    17:00 +1°C° 0 mm 1 mps 695 mmHg 83%
    18:00 0°C° 0 mm 1 mps 695 mmHg 84%
    19:00 0°C° 0 mm 1 mps 695 mmHg 85%
    20:00 0°C° 0 mm 1 mps 695 mmHg 86%
    21:00 0°C° 0 mm 1 mps 696 mmHg 87%
    22:00 -1°C° 0 mm 1 mps 696 mmHg 88%
    23:00 -1°C° 0 mm 1 mps 696 mmHg 89%
    Show more